This is the latest recevied weather packets stored in our database for station/object OE6PLD-13. If no packets are shown the sender has not sent any weather packets the latest 10 day(s).
| Time | Temp. | Humidity | Pressure | Rain* | Wind** | Luminosity | Snow |
|---|---|---|---|---|---|---|---|
| 1777585439 | 3.89° C | 63% | 1014.5 hPa | 0.76 mm | - | 0 W/m² | - |
| 1777585256 | 3.33° C | 64% | 1014.4 hPa | 0.76 mm | - | 0 W/m² | - |
| 1777585072 | 3.33° C | 64% | 1014.3 hPa | 0.76 mm | - | 0 W/m² | - |
| 1777584889 | 3.89° C | 62% | 1014.4 hPa | 0.76 mm | - | 0 W/m² | - |
| 1777584706 | 3.89° C | 62% | 1014.3 hPa | 0.76 mm | - | 0 W/m² | - |
| 1777584522 | 3.89° C | 63% | 1014.4 hPa | 0.76 mm | - | 0 W/m² | - |
| 1777584339 | 3.89° C | 62% | 1014.4 hPa | 0.76 mm | - | 0 W/m² | - |
| 1777584155 | 3.89° C | 63% | 1014.3 hPa | 0.76 mm | - | 0 W/m² | - |
| 1777583972 | 3.89° C | 61% | 1014.2 hPa | 0.76 mm | - | 0 W/m² | - |
| 1777583789 | 3.89° C | 62% | 1014.3 hPa | 0.76 mm | - | 0 W/m² | - |
| 1777583605 | 4.44° C | 62% | 1014.2 hPa | 0.76 mm | - | 0 W/m² | - |
| 1777583422 | 4.44° C | 60% | 1014.1 hPa | 0.76 mm | - | 0 W/m² | - |
| 1777583239 | 4.44° C | 60% | 1014.2 hPa | 0.76 mm | - | 0 W/m² | - |
| 1777583055 | 3.89° C | 60% | 1014.1 hPa | 0.76 mm | - | 0 W/m² | - |
| 1777582872 | 3.89° C | 60% | 1014.2 hPa | 0.76 mm | - | 0 W/m² | - |
| 1777582689 | 3.89° C | 60% | 1014.2 hPa | 0.76 mm | - | 0 W/m² | - |
| 1777582505 | 4.44° C | 59% | 1014.3 hPa | 0.76 mm | - | 0 W/m² | - |
| 1777582322 | 4.44° C | 59% | 1014.4 hPa | 0.76 mm | - | 0 W/m² | - |
| 1777582139 | 4.44° C | 59% | 1014 hPa | 0.76 mm | - | 0 W/m² | - |
| 1777581955 | 5° C | 58% | 1014.2 hPa | 0.76 mm | - | 0 W/m² | - |
| 1777581772 | 5° C | 58% | 1014 hPa | 0.76 mm | - | 0 W/m² | - |
| 1777581588 | 5° C | 59% | 1014 hPa | 0.76 mm | - | 0 W/m² | - |
| 1777581405 | 5.56° C | 56% | 1014.2 hPa | 0.76 mm | - | 0 W/m² | - |
| 1777581222 | 5.56° C | 55% | 1014.2 hPa | 0.76 mm | - | 0 W/m² | - |
| 1777581038 | 5.56° C | 58% | 1014.1 hPa | 0.76 mm | - | 0 W/m² | - |
* Rain latest hour (hover to see other rain measurements)
** Current wind speed in m/s (hover to see current wind gust speed)